GW5808 Weather Reports


Display with metric or nautical units.
time (UTC)temp
F
wind
direction
speed
MPH
gust
MPH
rain 1hr
in
rain 24hr
in
rain mn
in
humidity
%
barometer
mb
20260504060120 43 143 5.0 5.0 0.00 0.00 0.00 80 999.7
20260504050548 44 94 2.0 3.0 0.00 0.00 0.00 78 1000.0
20260504045542 44 72 3.0 3.0 0.00 0.00 0.00 77 1000.2
20260504045037 44 73 2.0 3.0 0.00 0.00 0.00 76 1000.3
20260504044535 44 50 3.0 3.0 0.00 0.00 0.00 75 1000.1
20260504044032 44 78 2.0 2.0 0.00 0.00 0.00 75 1000.2
20260504043529 44 80 2.0 2.0 0.00 0.00 0.00 74 1000.3
20260504043026 44 82 2.0 3.0 0.00 0.00 0.00 73 1000.3
20260504042523 44 67 2.0 2.0 0.00 0.00 0.00 73 1000.4
20260504042020 44 76 0.0 2.0 0.00 0.00 0.00 75 1000.6
20260504041516 44 89 2.0 4.0 0.00 0.00 0.00 76 1000.5
20260504041012 42 67 2.0 4.0 0.00 0.00 0.00 78 1000.6
20260504040510 42 71 1.0 4.0 0.00 0.00 0.00 78 1000.9
20260504040007 42 67 2.0 5.0 0.00 0.00 0.00 78 1001.0
20260504035504 41 24 3.0 5.0 0.00 0.00 0.00 78 1000.8
20260504034959 41 76 3.0 4.0 0.00 0.00 0.00 78 1000.7
20260504034457 41 65 3.0 4.0 0.00 0.00 0.00 77 1000.8
20260504033954 41 67 3.0 4.0 0.00 0.00 0.00 77 1000.6
20260504033451 41 65 4.0 4.0 0.00 0.00 0.00 77 1000.7
20260504032948 40 50 2.0 3.0 0.00 0.00 0.00 77 1000.8
20260504032445 40 40 4.0 4.0 0.00 0.00 0.00 77 1000.6
20260504031942 40 37 2.0 4.0 0.00 0.00 0.00 77 1000.4
20260504031439 40 73 4.0 4.0 0.00 0.00 0.00 77 1000.4
20260504030935 39 85 4.0 4.0 0.00 0.00 0.00 77 1000.2
20260504030433 39 73 4.0 5.0 0.00 0.00 0.00 76 1000.5
20260504025928 40 71 4.0 5.0 0.00 0.00 0.00 75 1000.5
20260504025426 41 43 3.0 4.0 0.00 0.00 0.00 72 1000.3
20260504024923 41 64 2.0 4.0 0.00 0.00 0.00 72 1000.2
20260504024420 40 115 2.0 3.0 0.00 0.00 0.00 73 1000.2
20260504023917 41 86 2.0 4.0 0.00 0.00 0.00 72 1000.4
20260504023413 41 101 1.0 3.0 0.00 0.00 0.00 72 1000.3
20260504022908 40 80 2.0 4.0 0.00 0.00 0.00 74 1000.2
20260504022405 40 83 3.0 4.0 0.00 0.00 0.00 74 1000.2
20260504021902 40 70 4.0 4.0 0.00 0.00 0.00 73 1000.0
20260504021359 42 61 3.0 4.0 0.00 0.00 0.00 69 1000.3
20260504020856 41 60 3.0 4.0 0.00 0.00 0.00 70 1000.3
20260504020353 42 53 3.0 4.0 0.00 0.00 0.00 69 1000.3
20260504015849 42 62 2.0 3.0 0.00 0.00 0.00 68 1000.3
20260504015345 43 60 2.0 4.0 0.00 0.00 0.00 64 1000.3
20260504014841 43 73 4.0 4.0 0.00 0.00 0.00 66 1000.2
20260504014337 43 68 3.0 4.0 0.00 0.00 0.00 64 1000.1
20260504013835 44 71 2.0 4.0 0.00 0.00 0.00 63 1000.1
20260504013333 44 69 3.0 4.0 0.00 0.00 0.00 61 1000.2
20260504012829 45 72 3.0 4.0 0.00 0.00 0.00 59 1000.1
20260504012327 45 44 2.0 3.0 0.00 0.00 0.00 59 1000.1
20260504011824 44 76 2.0 2.0 0.00 0.00 0.00 61 1000.1
20260504011321 45 71 2.0 3.0 0.00 0.00 0.00 59 1000.2
20260504010817 46 69 0.0 2.0 0.00 0.00 0.00 57 1000.1
20260504010312 47 63 1.0 2.0 0.00 0.00 0.00 55 999.9
20260504005809 47 17 3.0 3.0 0.00 0.00 0.00 53 1000.0
20260504005306 48 28 2.0 3.0 0.00 0.00 0.00 53 999.9
20260504004804 48 2 3.0 4.0 0.00 0.00 0.00 51 999.9
20260504004301 48 23 2.0 4.0 0.00 0.00 0.00 50 1000.0
20260504003757 48 46 0.0 3.0 0.00 0.00 0.00 50 999.7
20260504003254 48 347 1.0 2.0 0.00 0.00 0.00 51 999.8
20260504002751 48 47 0.0 3.0 0.00 0.00 0.00 50 999.7
20260504002249 49 0 2.0 4.0 0.00 0.00 0.00 49 999.8
20260504001746 49 7 4.0 5.0 0.00 0.00 0.00 48 999.7
20260504001243 49 350 3.0 4.0 0.00 0.00 0.00 48 999.6
20260504000739 49 9 2.0 4.0 0.00 0.00 0.00 49 999.5
20260504000236 49 343 2.0 4.0 0.00 0.00 0.00 49 999.6
20260503235735 50 1 2.0 4.0 0.00 0.00 0.00 48 999.2
20260503235231 50 354 2.0 4.0 0.00 0.00 0.00 47 999.3
20260503234729 50 343 2.0 5.0 0.00 0.00 0.00 46 999.5
20260503234227 50 329 4.0 6.0 0.00 0.00 0.00 45 999.4
20260503233724 51 17 4.0 6.0 0.00 0.00 0.00 44 999.3
20260503233219 51 4 2.0 5.0 0.00 0.00 0.00 44 999.2
20260503232716 51 320 5.0 10.0 0.00 0.00 0.00 42 999.1
20260503232213 51 357 4.0 4.0 0.00 0.00 0.00 44 999.1
20260503231712 52 6 3.0 7.0 0.00 0.00 0.00 41 999.1
20260503231208 52 322 5.0 7.0 0.00 0.00 0.00 41 999.0
20260503230704 52 315 7.0 13.0 0.00 0.00 0.00 39 999.0
20260503230202 52 337 4.0 8.0 0.00 0.00 0.00 41 998.9
20260503225659 53 238 4.0 7.0 0.00 0.00 0.00 40 998.7
20260503225159 53 315 2.0 8.0 0.00 0.00 0.00 38 998.8
20260503224657 53 333 4.0 8.0 0.00 0.00 0.00 38 998.5
20260503224154 53 287 3.0 10.0 0.00 0.00 0.00 37 998.6
20260503223652 54 346 4.0 6.0 0.00 0.00 0.00 37 998.4
20260503223149 55 340 3.0 5.0 0.00 0.00 0.00 37 998.5
20260503222646 55 99 1.0 4.0 0.00 0.00 0.00 36 998.6
20260503222144 56 341 7.0 10.0 0.00 0.00 0.00 35 998.4
20260503221642 55 105 2.0 11.0 0.00 0.00 0.00 34 998.5
20260503221139 56 273 4.0 13.0 0.00 0.00 0.00 34 998.3
20260503220635 56 353 9.0 9.0 0.00 0.00 0.00 33 998.4
20260503220132 56 329 5.0 9.0 0.00 0.00 0.00 34 998.2
20260503215630 56 339 10.0 12.0 0.00 0.00 0.00 33 998.4
20260503215126 56 325 3.0 16.0 0.00 0.00 0.00 33 998.4
20260503214625 56 328 4.0 9.0 0.00 0.00 0.00 35 998.3
20260503214120 55 10 5.0 5.0 0.00 0.00 0.00 34 998.4
20260503213615 55 268 3.0 5.0 0.00 0.00 0.00 33 998.4
20260503213110 54 324 7.0 14.0 0.00 0.00 0.00 34 998.5
20260503212608 56 316 1.0 20.0 0.00 0.00 0.00 32 998.4
20260503212105 56 252 4.0 10.0 0.00 0.00 0.00 32 998.3
20260503211603 57 266 4.0 11.0 0.00 0.00 0.00 34 998.4
20260503211058 56 283 9.0 15.0 0.00 0.00 0.00 33 998.6
20260503210555 56 283 0.0 6.0 0.00 0.00 0.00 34 998.5
20260503210050 56 11 5.0 9.0 0.00 0.00 0.00 33 998.4
20260503205547 56 321 4.0 8.0 0.00 0.00 0.00 33 998.5
20260503205043 56 232 6.0 13.0 0.00 0.00 0.00 34 998.3
20260503204540 56 254 3.0 8.0 0.00 0.00 0.00 37 998.7
20260503204037 56 312 8.0 11.0 0.00 0.00 0.00 34 998.6
20260503203534 56 234 6.0 10.0 0.00 0.00 0.00 34 998.8
20260503203031 56 290 4.0 9.0 0.00 0.00 0.00 32 998.8
20260503202529 57 328 9.0 12.0 0.00 0.00 0.00 33 998.5
20260503202027 55 352 6.0 15.0 0.00 0.00 0.00 37 998.7
20260503201520 56 224 10.0 14.0 0.00 0.00 0.00 33 998.7
20260503201017 55 303 4.0 16.0 0.00 0.00 0.00 39 998.6
20260503200512 56 340 4.0 12.0 0.00 0.00 0.00 35 998.7
20260503200009 55 274 5.0 13.0 0.00 0.00 0.00 38 998.8
20260503195506 56 331 8.0 10.0 0.00 0.00 0.00 37 999.0
20260503194957 55 331 4.0 9.0 0.00 0.00 0.00 38 998.8
20260503194455 56 322 5.0 9.0 0.00 0.00 0.00 37 999.1
20260503193955 55 328 4.0 14.0 0.00 0.00 0.00 38 999.2
20260503193451 55 313 4.0 12.0 0.00 0.00 0.00 40 999.1
20260503192946 55 343 3.0 8.0 0.00 0.00 0.00 41 999.2
20260503192443 55 11 2.0 15.0 0.00 0.00 0.00 41 999.5
20260503191938 54 213 10.0 13.0 0.00 0.00 0.00 39 999.4
20260503191436 54 352 5.0 9.0 0.00 0.00 0.00 42 999.5
20260503190932 52 246 1.0 13.0 0.00 0.00 0.00 43 999.5
20260503190430 51 317 3.0 8.0 0.00 0.00 0.00 41 999.4
20260503185927 52 330 4.0 13.0 0.00 0.00 0.00 43 999.7
20260503185423 51 253 3.0 9.0 0.00 0.00 0.00 43 999.7
20260503184922 52 325 6.0 9.0 0.00 0.00 0.00 41 999.7
20260503184419 53 10 4.0 7.0 0.00 0.00 0.00 39 1000.0
20260503183916 53 306 4.0 9.0 0.00 0.00 0.00 43 999.9
20260503183412 51 341 6.0 9.0 0.00 0.00 0.00 41 1000.1
20260503182909 52 356 9.0 15.0 0.00 0.00 0.00 40 1000.0
20260503182409 53 303 4.0 9.0 0.00 0.00 0.00 45 1000.2
20260503181900 51 252 8.0 12.0 0.00 0.00 0.00 42 1000.2
20260503181357 50 220 4.0 12.0 0.00 0.00 0.00 44 1000.0
20260503180853 51 262 5.0 9.0 0.00 0.00 0.00 44 999.9
20260503180351 50 354 6.0 14.0 0.00 0.00 0.00 42 1000.0
20260503175847 50 0 3.0 13.0 0.00 0.00 0.00 46 1000.2
20260503175345 52 328 5.0 10.0 0.00 0.00 0.00 48 1000.1
20260503174840 51 265 6.0 10.0 0.00 0.00 0.00 46 1000.3
20260503174339 50 325 5.0 9.0 0.00 0.00 0.00 46 1000.4
20260503173833 50 338 3.0 5.0 0.00 0.00 0.00 47 1000.3
20260503173330 50 343 4.0 6.0 0.00 0.00 0.00 50 1000.3
20260503172827 49 201 4.0 11.0 0.00 0.00 0.00 48 1000.6
20260503172325 49 319 3.0 6.0 0.00 0.00 0.00 49 1000.6
20260503171820 48 258 4.0 8.0 0.00 0.00 0.00 52 1000.4
20260503171318 48 335 9.0 11.0 0.00 0.00 0.00 50 1000.5
20260503170815 49 207 4.0 6.0 0.00 0.00 0.00 52 1000.6
20260503170311 48 339 7.0 9.0 0.00 0.00 0.00 50 1000.7
20260503150703 45 29 3.0 10.0 0.00 0.00 0.00 62 1001.1
20260503150200 45 319 2.0 8.0 0.00 0.00 0.00 62 1001.1
20260503140124 48 209 3.0 11.0 0.00 0.00 0.00 58 1001.1
20260503131053 44 92 0.0 6.0 0.00 0.00 0.00 71 1001.7
20260503130550 44 331 3.0 5.0 0.00 0.00 0.00 71 1001.5
20260503110441 38 330 2.0 4.0 0.00 0.00 0.00 82 1001.3
20260503090333 37 47 2.0 3.0 0.00 0.00 0.00 84 1000.6
20260503081300 37 16 2.0 2.0 0.00 0.00 0.00 85 1001.1
20260503080755 37 27 1.0 2.0 0.00 0.00 0.00 85 1001.1
20260503080253 36 356 2.0 3.0 0.00 0.00 0.00 85 1001.0
20260503072729 36 41 2.0 2.0 0.00 0.00 0.00 84 1001.4
20260503072226 36 38 2.0 2.0 0.00 0.00 0.00 84 1001.4
20260503071723 35 18 1.0 2.0 0.00 0.00 0.00 84 1001.3
20260503071220 35 41 1.0 2.0 0.00 0.00 0.00 84 1001.3
20260503070716 35 42 2.0 3.0 0.00 0.00 0.00 84 1001.3
20260503070215 35 30 0.0 2.0 0.00 0.00 0.00 84 1001.5